Pompano Beach, FL

9:49 AM EDT on October 19, 2017 (GMT -0400)
Pompano Beach

Weather History for KPMP - September, 2012

Change the Weather History Date:

Saturday, September 29, 2012

  Actual Average Record
Temperature  
Mean Temperature 78 °F -  
Max Temperature 84 °F 90 °F 95 °F (1980)
Min Temperature 73 °F 73 °F 0 °F (2013)
Cooling Degree Days 14    
Growing Degree Days 28 (Base 50)    
Moisture  
Dew Point 74 °F    
Average Humidity 87    
Maximum Humidity 100    
Minimum Humidity 72    
Precipitation  
Precipitation 0.00 in - - ()
Sea Level Pressure  
Sea Level Pressure 29.93 in    
Wind  
Wind Speed 4 mph (East)    
Max Wind Speed 10 mph    
Max Gust Speed -    
Visibility 10 miles    
Events Rain , Thunderstorm    
Averages and records for this station are not official NWS values.
T = Trace of Precipitation, MM = Missing Value Source: NWS Daily Summary

Daily Weather History Graph

Daily Weather History Graph

Search for Another Location

Airport or City:

Trip Planner

Search our weather history database for the weather conditions in past years. The results will help you decide how hot, cold, wet, or windy it might be!

Date:

Astronomy

Sep. 29, 2012 Rise Set
Actual Time 7:12 AM EDT 7:08 PM EDT
Civil Twilight 6:49 AM EDT 7:31 PM EDT
Nautical Twilight 6:22 AM EDT 7:58 PM EDT
Astronomical Twilight 5:55 AM EDT 8:25 PM EDT
Moon 6:44 PM EDT (9/29) 6:40 AM EDT (9/29)
Length of Visible Light 12h 42m
Length of Day
11h 56m
Full, 100% of the Moon is Illuminated
Sep 29
Full
Sep 29
Full
Oct 8
Last Quarter
Oct 15
New
Oct 21
First Quarter

Hourly Weather History & Observations

Time (EDT) Temp. Heat Index Dew Point Humidity Pressure Visibility Wind Dir Wind Speed Gust Speed Precip Events Conditions
12:53 AM 75.0 °F - 73.9 °F 96% 29.96 in 10.0 mi Calm Calm - N/A   Clear
1:53 AM 75.0 °F - 73.9 °F 96% 29.95 in 10.0 mi Calm Calm - N/A   Clear
2:53 AM 75.0 °F - 73.9 °F 96% 29.95 in 10.0 mi NNW 3.5 mph - N/A   Partly Cloudy
3:07 AM 75.2 °F - 73.4 °F 94% 29.94 in 10.0 mi NNW 3.5 mph - N/A   Mostly Cloudy
3:18 AM 75.2 °F - 73.4 °F 94% 29.94 in 10.0 mi Calm Calm - N/A   Scattered Clouds
3:53 AM 75.9 °F - 73.9 °F 94% 29.94 in 10.0 mi Calm Calm - N/A   Mostly Cloudy
4:09 AM 75.2 °F - 73.4 °F 94% 29.93 in 10.0 mi Calm Calm - N/A   Scattered Clouds
4:39 AM 75.2 °F - 73.4 °F 94% 29.94 in 10.0 mi Calm Calm - N/A Thunderstorm Clear
4:53 AM 75.0 °F - 73.9 °F 96% 29.94 in 10.0 mi WNW 3.5 mph - N/A Thunderstorm Clear
5:33 AM 75.2 °F - 73.4 °F 94% 29.94 in 10.0 mi ENE 9.2 mph - 0.00 in Thunderstorm Thunderstorm
5:44 AM 75.2 °F - 73.4 °F 94% 29.94 in 10.0 mi ENE 6.9 mph - 0.00 in Thunderstorm Thunderstorm
5:53 AM 75.0 °F - 73.0 °F 94% 29.94 in 10.0 mi East 5.8 mph - 0.00 in Rain , Thunderstorm Light Thunderstorms and Rain
6:03 AM 73.4 °F - 73.4 °F 100% 29.94 in 9.0 mi East 6.9 mph - 0.00 in Rain Light Rain
6:53 AM 73.9 °F - 73.0 °F 97% 29.95 in 10.0 mi NNW 3.5 mph - 0.00 in   Clear
7:53 AM 73.9 °F - 73.0 °F 97% 29.96 in 10.0 mi Calm Calm - N/A   Partly Cloudy
8:53 AM 79.0 °F - 75.0 °F 88% 29.98 in 10.0 mi NE 3.5 mph - N/A   Scattered Clouds
9:53 AM 82.0 °F 88.6 °F 75.0 °F 79% 29.99 in 10.0 mi ENE 3.5 mph - N/A   Scattered Clouds
10:53 AM 82.9 °F 90.2 °F 75.0 °F 77% 29.98 in 10.0 mi East 8.1 mph - N/A   Scattered Clouds
11:53 AM 82.9 °F 89.4 °F 73.9 °F 74% 29.97 in 10.0 mi East 9.2 mph - N/A   Scattered Clouds
12:53 PM 82.9 °F 89.4 °F 73.9 °F 74% 29.94 in 10.0 mi East 10.4 mph - N/A   Scattered Clouds
1:53 PM 82.9 °F 89.4 °F 73.9 °F 74% 29.92 in 10.0 mi ESE 9.2 mph - N/A   Scattered Clouds
2:53 PM 84.0 °F 91.2 °F 73.9 °F 72% 29.89 in 10.0 mi East 8.1 mph - N/A   Clear
3:53 PM 82.9 °F 90.2 °F 75.0 °F 77% 29.88 in 10.0 mi ESE 10.4 mph - N/A   Scattered Clouds
4:53 PM 82.9 °F 89.4 °F 73.9 °F 74% 29.87 in 10.0 mi ESE 10.4 mph - N/A   Clear
5:53 PM 81.0 °F 86.2 °F 73.9 °F 79% 29.87 in 10.0 mi SE 10.4 mph - N/A   Clear
6:53 PM 80.1 °F 84.2 °F 73.0 °F 79% 29.86 in 10.0 mi SE 8.1 mph - N/A   Clear
7:53 PM 80.1 °F 84.5 °F 73.9 °F 81% 29.87 in 10.0 mi ESE 8.1 mph - N/A   Clear
8:53 PM 79.0 °F - 73.0 °F 82% 29.89 in 10.0 mi ESE 6.9 mph - N/A   Clear
9:53 PM 79.0 °F - 75.0 °F 88% 29.92 in 10.0 mi SSE 3.5 mph - N/A   Clear
10:53 PM 79.0 °F - 75.0 °F 88% 29.93 in 10.0 mi Calm Calm - N/A   Clear
11:53 PM 79.0 °F - 75.0 °F 88% 29.92 in 10.0 mi Calm Calm - N/A   Scattered Clouds